User: anonymous   Login
Location: Unspecified
(0.0000°N, 0.0000°E)
Time: 21:45:59
(UTC+00:00)
Language:

COSMOS 2467 - Orbit

View from above orbital plane
View from above orbital plane
View from above satellite
View from above satellite

Ground track
Ground track

The orbit data is extracted from the following two-line orbital elements,

1 37152U 10043A   17117.73832089 +.00000014 +00000-0 +28214-4 0  9999
2 37152 082.4608 352.5077 0000298 307.7776 052.3279 12.42869962300946
Epoch (UTC): 27 April 2017 17:43:10
Eccentricity: 0.0000298
inclination: 82.4608°
perigee height: 1494 km
apogee height: 1494 km
right ascension of ascending node: 352.5077°
argument of perigee: 307.7776°
revolutions per day: 12.42869962
mean anomaly at epoch: 52.3279°
orbit number at epoch: 30094

The dashed part of the orbit path shows where the satellite is in the earth's shadow,  

DLR